Regional Weather Roundup
Issued by NWS San Diego, CA

Home | Current Version | Previous Version | Text Only | Print | Product List | Glossary On
Versions: 1 2 3 4 5 6 7 8 9 10 11 12 13 14 15 16 17 18 19 20 21 22 23 24 25 26 27 28 29 30 31 32 33 34 35 36 37 38 39 40 41 42 43 44 45 46 47 48 49 50
000
ASUS46 KSGX 041911
RWRSGX

SAN DIEGO HOURLY WEATHER ROUNDUP
NATIONAL WEATHER SERVICE SAN DIEGO CA
1200 PM PDT SAT JUL 04 2015

NOTE: "FAIR" INDICATES FEW OR NO CLOUDS BELOW 12,000 FEET WITH NO
SIGNIFICANT WEATHER AND/OR OBSTRUCTIONS TO VISIBILITY.

CAZ042-043-060-061-PZZ750-775-042000-

GREATER SAN DIEGO AREA

CITY           SKY/WX    TMP DP  RH WIND       PRES   REMARKS
LINDBERGH FLD  PTSUNNY   70  60  70 NW7       29.93F
POINT LOMA       N/A     69  59  70 NW12        N/A
NATIONAL CITY    N/A     71  64  77 SW7       29.92F
CHULA VISTA      N/A     70  64  80 W5        29.85S
IMPERIAL BEACH CLOUDY    71  60  68 W12       29.93S
BROWN FIELD    MOSUNNY   72  62  71 W8        29.92S
MIRAMAR MCAS   PTSUNNY   74  60  61 W6        29.92S
MONTGOMERY FLD PTSUNNY   72  60  66 SW7       29.92F

$$

NORTH SAN DIEGO COUNTY

CITY           SKY/WX    TMP DP  RH WIND       PRES   REMARKS
CAMP PENDLETON CLOUDY    71  60  68 SW7       29.91S
OCEANSIDE AP   CLOUDY    72  61  68 SW6       29.91S
OCEANSIDE HBR    N/A     68  64  85 SW3       29.94F
VISTA            N/A     71  63  77 SW5       29.89S
CARLSBAD       CLOUDY    68  61  78 W5        29.92S
DEL MAR          N/A     68  63  84 CALM      29.94S
LA JOLLA SCRIP   N/A    N/A N/A N/A W3        29.90S
FALLBROOK        N/A     75  65  71 SW6       29.90S
ESCONDIDO        N/A     75  64  67 SW7       29.91S
SAN MARCOS       N/A     70  63  77 CALM      29.89S
POWAY            N/A     77  65  66 W3        29.91F

$$

EAST SAN DIEGO COUNTY

CITY           SKY/WX    TMP DP  RH WIND       PRES   REMARKS
RAMONA         MOSUNNY   77  61  57 NW8       29.93S
LA MESA          N/A     72  62  71 W3        29.66S
JAMUL            N/A     75  63  65 NW3       29.89S
DESCANSO N       N/A     80  62  54 W7        29.73S
CAMPO            N/A     81  59  47 SW15      29.91S

$$

ORANGE COUNTY AND THE LOS ANGELES BASIN

CITY           SKY/WX    TMP DP  RH WIND       PRES   REMARKS
JOHN WAYNE AP  MOSUNNY   73  60  63 SW7       29.91S
LAKE FOREST FR   N/A     76  60  56 SW5       29.80S
SANTA ANA        N/A     76  63  64 SW6       29.86S
HUNTINGTON BCH   N/A     71  63  75 S5        29.94S
LOS ALAMITOS   MOSUNNY   72  61  68 S8        29.91S
FULLERTON      SUNNY     74  59  59 VRB6      29.90S
LONG BEACH     SUNNY     72  59  63 VRB6      29.91S
L.A. AP        MOSUNNY   70  61  73 W9        29.92R
L.A. DOWNTOWN  SUNNY     78  61  55 CALM      29.89S

$$

THE INLAND EMPIRE

CITY           SKY/WX    TMP DP  RH WIND       PRES   REMARKS
CORONA         CLOUDY    78  61  55 W12       29.89S
CHINO          MOSUNNY   81  60  48 W9        29.90R
ONTARIO        MOSUNNY   81  58  45 SW8       29.89S
SAN BERNARDINO MOSUNNY   84  50  30 W7        29.89S
RIVERSIDE AP   SUNNY     83  58  42 W6        29.89S
MORENO VALLEY    N/A     87  60  39 NW2       29.87R
MARCH ARB      MOSUNNY   86  54  33 NW8       29.90S
HORSETHIEF CYN   N/A     82  56  40 NW5       29.83R
PERRIS           N/A     84  57  38 NE5         N/A
MENIFEE          N/A     85  62  46 S7        29.95S
HEMET EAST       N/A     83  54  36 CALM      29.87S
FRENCH VALLEY  FAIR      77  61  57 SW9       29.91F
TEMECULA         N/A     78  64  61 SW6       29.86S

$$

SAN BERNARDINO AND RIVERSIDE COUNTY MOUNTAINS

CITY           SKY/WX    TMP DP  RH WIND       PRES   REMARKS
BIG BEAR AP    CLOUDY    73  39  29 NE5       30.23S
ANGELUS OAKS     N/A     78  49  35 CALM      29.70R
PINE COVE        N/A     80  51  36 NW1       29.78S

$$

SOUTHERN DESERT INCLUDING THE COACHELLA VALLEY

CITY           SKY/WX    TMP DP  RH WIND       PRES   REMARKS
PALM SPRINGS   SUNNY    108  47  13 NE10      29.75S HX 104
THOUSAND PALMS   N/A    107  50  14 NE6       29.71S HX 104
PALM DESERT      N/A    110  56  17 SE6       28.75S HX 109
THERMAL        SUNNY    106  55  18 SE13      29.69S HX 105
BLYTHE         MOSUNNY  106  58  20 S10       29.74F HX 106
IMPERIAL AP    SUNNY    105  55  19 E12       29.71S HX 104
EL CENTRO NAS  MOSUNNY  106  52  16 E9        29.73F HX 103
YUMA AZ        PTSUNNY  105  60  22 S17       29.76F HX 106
MEXICALI       MOSUNNY  102  55  21 SE13      29.74F HX 101

$$

UPPER DESERT

CITY           SKY/WX    TMP DP  RH WIND       PRES   REMARKS
VICTORVILLE AP SUNNY     99  37  12 NE3       29.92F
HESPERIA         N/A     97  43  15 SE1       29.85F
APPLE VALLEY     N/A     98  38  12 CALM      29.95F
PALMDALE       SUNNY     96  38  13 SW5       29.90F
LANCASTER      SUNNY     99  35  10 CALM      29.89F
EDWARDS AFB    MOSUNNY   96  41  15 E2        29.87F
DAGGETT        SUNNY     99  39  12 VRB3      29.85F
29 PALMS N     SUNNY    100  46  16 VRB6      29.91F HX  96
NEEDLES        PTSUNNY  102  51  18 E10       29.79F HX  99

$$

REGIONAL REPORTS

CITY           SKY/WX    TMP DP  RH WIND       PRES   REMARKS
SANTA BARBARA  MOSUNNY   69  60  73 S10       29.91R
SANDBERG       SUNNY     89  47  23 S12       30.06S
LAS VEGAS NV   CLOUDY    96  43  16 W3        29.84S
PHOENIX AZ     CLOUDY    99  61  28 S10G22    29.82F HX  99
TIJUANA        MOSUNNY   72  57  60 W10       29.94S
ENSENADA NW      N/A     69  32  25 W9        29.89F

$$

OFFSHORE ISLANDS

CITY           SKY/WX    TMP DP  RH WIND       PRES   REMARKS
CATALINA ARPT  SUNNY     65  58  78 W8        29.96R
SAN NICOLAS IS CLOUDY   N/A N/A N/A W14G23    29.93S

$$

MARINE AND OFFSHORE BUOY REPORTS

STATION/POSITION SKY/WX   TEMP    WIND        PRES    SWELL
                          AIR SEA DIR/SP/G            HT/PER/DIR
                          (F)     (DEG/KT/KT) (MB)    (FT/S/D)
TANNER BANKS               63 63  300/  8/ 10 1014.1R   3/230/16
S CLEMENTE BASIN           63 68  290/ 10/ 14 1013.4R   3/260/15
SAN NICOLAS IS.               63                N/A     2/220/15
SO. S. ROSA ISLA           62 64  290/ 12/ 16 1012.9R   3/ 9
W. S. BARBARA CH           59 60  290/  8/  8 1012.8R   2/250/15
M. S. BARBARA CH           62 63  280/  8/ 12 1013.5R
S. MONICA BASIN            63 68  310/  4/  6 1013.1R   3/130/13
S PEDRO CHANNEL               68                N/A     2/170/18
DANA POINT                    68                N/A     2/200/15
OCEANSIDE OFFSHR              70                N/A     2/220/15
TORREY PINES OTR              70                N/A     2/210/15
LA JOLLA 1                 67 72  260/  5/  7 1013.2R
MISSION BAY BUOY              71                N/A     2/220/15
SAN DIEGO BAY                 72              1013.8R
POINT LOMA SOUTH              70                N/A     2/220/15

$$




USA.gov is the U.S. government's official web portal to all federal, state and local government web resources and services.